Time,TemperatureF,DewpointF,PressureIn,WindDirection,WindDirectionDegrees,WindSpeedMPH,WindSpeedGustMPH,Humidity,HourlyPrecipIn,Conditions,Clouds,dailyrainin,SolarRadiationWatts/m^2,SoftwareType,DateUTC
2013-03-14 00:12:00,42.0,25.0,-100.00,South,176,23.0,40.0,50,0.00,,,0.00,0.000000,,2013-03-14 06:12:00,
2013-03-14 00:22:00,42.0,25.0,-100.00,South,176,23.0,40.0,50,0.00,,,0.00,0.000000,,2013-03-14 06:22:00,
2013-03-14 00:32:00,42.0,25.0,-100.00,South,176,23.0,40.0,50,0.00,,,0.00,0.000000,,2013-03-14 06:32:00,
2013-03-14 00:42:00,42.0,25.0,-100.00,South,176,23.0,40.0,50,0.00,,,0.00,0.000000,,2013-03-14 06:42:00,
2013-03-14 00:52:00,42.0,24.0,-100.00,SSE,160,18.0,35.0,48,0.00,,,0.00,0.000000,,2013-03-14 06:52:00,
2013-03-14 01:22:00,42.0,24.0,-100.00,SSE,160,18.0,35.0,48,0.00,,,0.00,0.000000,,2013-03-14 07:22:00,
2013-03-14 01:32:00,42.0,24.0,-100.00,SSE,160,18.0,35.0,48,0.00,,,0.00,0.000000,,2013-03-14 07:32:00,
2013-03-14 01:42:00,42.0,24.0,-100.00,SSE,160,18.0,35.0,48,0.00,,,0.00,0.000000,,2013-03-14 07:42:00,
2013-03-14 02:21:00,42.0,24.0,-100.00,South,182,20.0,32.0,48,0.00,,,0.00,0.000000,,2013-03-14 08:21:00,
2013-03-14 02:32:00,42.0,24.0,-100.00,South,182,20.0,32.0,48,0.00,,,0.00,0.000000,,2013-03-14 08:32:00,
2013-03-14 02:41:00,42.0,24.0,-100.00,South,182,20.0,32.0,48,0.00,,,0.00,0.000000,,2013-03-14 08:41:00,
2013-03-14 02:51:00,42.0,24.0,-100.00,South,182,20.0,32.0,48,0.00,,,0.00,0.000000,,2013-03-14 08:51:00,
2013-03-14 03:22:00,40.0,21.0,-100.00,SSE,150,20.0,36.0,47,-99.99,,,0.00,0.000000,,2013-03-14 09:22:00,
2013-03-14 03:32:00,40.0,21.0,-100.00,SSE,150,20.0,36.0,47,-99.99,,,0.00,0.000000,,2013-03-14 09:32:00,
2013-03-14 03:42:00,40.0,21.0,-100.00,SSE,150,20.0,36.0,47,-99.99,,,0.00,0.000000,,2013-03-14 09:42:00,
2013-03-14 03:51:00,40.0,21.0,-100.00,SSE,150,20.0,36.0,47,-99.99,,,0.00,0.000000,,2013-03-14 09:51:00,
2013-03-14 03:52:00,42.0,23.0,-100.00,SSE,158,21.0,31.0,47,0.00,,,0.00,0.000000,,2013-03-14 09:52:00,
2013-03-14 04:12:00,42.0,23.0,-100.00,SSE,158,21.0,31.0,47,0.00,,,0.00,0.000000,,2013-03-14 10:12:00,
2013-03-14 04:22:00,42.0,23.0,-100.00,SSE,158,21.0,31.0,47,0.00,,,0.00,0.000000,,2013-03-14 10:22:00,
2013-03-14 04:42:00,42.0,23.0,-100.00,SSE,158,21.0,31.0,47,0.00,,,0.00,0.000000,,2013-03-14 10:42:00,
2013-03-14 04:52:00,41.0,24.0,-100.00,SE,127,19.0,27.0,50,0.00,,,0.00,0.000000,,2013-03-14 10:52:00,
2013-03-14 05:12:00,41.0,24.0,-100.00,SE,127,19.0,27.0,50,0.00,,,0.00,0.000000,,2013-03-14 11:12:00,
2013-03-14 05:22:00,41.0,24.0,-100.00,SE,127,19.0,27.0,50,0.00,,,0.00,0.000000,,2013-03-14 11:22:00,
2013-03-14 05:42:00,41.0,24.0,-100.00,SE,127,19.0,27.0,50,0.00,,,0.00,0.000000,,2013-03-14 11:42:00,
2013-03-14 06:12:00,39.0,23.0,-100.00,East,96,19.0,27.0,53,0.00,,,0.00,0.000000,,2013-03-14 12:12:00,
2013-03-14 06:22:00,39.0,23.0,-100.00,East,96,19.0,27.0,53,0.00,,,0.00,0.000000,,2013-03-14 12:22:00,
2013-03-14 06:33:00,39.0,23.0,-100.00,East,96,19.0,27.0,53,0.00,,,0.00,0.000000,,2013-03-14 12:33:00,
2013-03-14 06:42:00,39.0,23.0,-100.00,East,96,19.0,27.0,53,0.00,,,0.00,0.000000,,2013-03-14 12:42:00,
2013-03-14 06:51:00,39.0,23.0,-100.00,East,96,19.0,27.0,53,0.00,,,0.00,0.000000,,2013-03-14 12:51:00,
2013-03-14 06:52:00,41.0,25.0,-100.00,SSE,147,19.0,32.0,52,0.00,,,0.00,0.000000,,2013-03-14 12:52:00,
2013-03-14 07:12:00,41.0,25.0,-100.00,SSE,147,19.0,32.0,52,0.00,,,0.00,0.000000,,2013-03-14 13:12:00,
2013-03-14 07:22:00,41.0,25.0,-100.00,SSE,147,19.0,32.0,52,0.00,,,0.00,0.000000,,2013-03-14 13:22:00,
2013-03-14 07:32:00,41.0,25.0,-100.00,SSE,147,19.0,32.0,52,0.00,,,0.00,0.000000,,2013-03-14 13:32:00,
2013-03-14 07:42:00,41.0,25.0,-100.00,SSE,147,19.0,32.0,52,0.00,,,0.00,0.000000,,2013-03-14 13:42:00,
2013-03-14 07:52:00,42.0,23.0,-100.00,ESE,122,19.0,32.0,47,0.00,,,0.00,6.000000,,2013-03-14 13:52:00,
2013-03-14 08:22:00,42.0,23.0,-100.00,ESE,122,19.0,32.0,47,0.00,,,0.00,6.000000,,2013-03-14 14:22:00,
2013-03-14 08:32:00,42.0,23.0,-100.00,ESE,122,19.0,32.0,47,0.00,,,0.00,6.000000,,2013-03-14 14:32:00,
2013-03-14 08:42:00,42.0,23.0,-100.00,ESE,122,19.0,32.0,47,0.00,,,0.00,6.000000,,2013-03-14 14:42:00,
2013-03-14 08:52:00,41.0,21.0,-100.00,ESE,105,18.0,34.0,44,0.00,,,0.00,84.000000,,2013-03-14 14:52:00,
2013-03-14 09:12:00,41.0,21.0,-100.00,ESE,105,18.0,34.0,44,0.00,,,0.00,84.000000,,2013-03-14 15:12:00,
2013-03-14 09:22:00,41.0,21.0,-100.00,ESE,105,18.0,34.0,44,0.00,,,0.00,84.000000,,2013-03-14 15:22:00,
2013-03-14 09:32:00,41.0,21.0,-100.00,ESE,105,18.0,34.0,44,0.00,,,0.00,84.000000,,2013-03-14 15:32:00,
2013-03-14 09:42:00,41.0,21.0,-100.00,ESE,105,18.0,34.0,44,0.00,,,0.00,84.000000,,2013-03-14 15:42:00,
2013-03-14 09:52:00,44.0,23.0,-100.00,SE,130,17.0,36.0,43,0.00,,,0.00,288.000000,,2013-03-14 15:52:00,
2013-03-14 10:22:00,44.0,23.0,-100.00,SE,130,17.0,36.0,43,0.00,,,0.00,288.000000,,2013-03-14 16:22:00,
2013-03-14 10:32:00,44.0,23.0,-100.00,SE,130,17.0,36.0,43,0.00,,,0.00,288.000000,,2013-03-14 16:32:00,
2013-03-14 10:42:00,44.0,23.0,-100.00,SE,130,17.0,36.0,43,0.00,,,0.00,288.000000,,2013-03-14 16:42:00,
2013-03-14 10:52:00,46.0,24.0,-100.00,SE,132,16.0,33.0,41,0.00,,,0.00,465.000000,,2013-03-14 16:52:00,
2013-03-14 11:12:00,46.0,24.0,-100.00,SE,132,16.0,33.0,41,0.00,,,0.00,465.000000,,2013-03-14 17:12:00,
2013-03-14 11:23:00,46.0,24.0,-100.00,SE,132,16.0,33.0,41,0.00,,,0.00,465.000000,,2013-03-14 17:23:00,
2013-03-14 11:32:00,46.0,24.0,-100.00,SE,132,16.0,33.0,41,0.00,,,0.00,465.000000,,2013-03-14 17:32:00,
2013-03-14 11:42:00,46.0,24.0,-100.00,SE,132,16.0,33.0,41,0.00,,,0.00,465.000000,,2013-03-14 17:42:00,
2013-03-14 11:52:00,47.0,25.0,-100.00,SE,134,17.0,30.0,42,0.00,,,0.00,605.000000,,2013-03-14 17:52:00,
2013-03-14 12:22:00,47.0,25.0,-100.00,SE,134,17.0,30.0,42,0.00,,,0.00,605.000000,,2013-03-14 18:22:00,
2013-03-14 12:32:00,47.0,25.0,-100.00,SE,134,17.0,30.0,42,0.00,,,0.00,605.000000,,2013-03-14 18:32:00,
2013-03-14 12:42:00,47.0,25.0,-100.00,SE,134,17.0,30.0,42,0.00,,,0.00,605.000000,,2013-03-14 18:42:00,
2013-03-14 12:52:00,47.0,26.0,-100.00,SE,128,20.0,34.0,43,0.00,,,0.00,623.000000,,2013-03-14 18:52:00,
2013-03-14 13:22:00,47.0,26.0,-100.00,SE,128,20.0,34.0,43,0.00,,,0.00,623.000000,,2013-03-14 19:22:00,
2013-03-14 13:32:00,47.0,26.0,-100.00,SE,128,20.0,34.0,43,0.00,,,0.00,623.000000,,2013-03-14 19:32:00,
2013-03-14 13:42:00,47.0,26.0,-100.00,SE,128,20.0,34.0,43,0.00,,,0.00,623.000000,,2013-03-14 19:42:00,
2013-03-14 14:52:00,46.0,25.0,-100.00,South,170,22.0,37.0,44,-99.99,,,0.00,308.000000,,2013-03-14 20:52:00,
2013-03-14 15:22:00,46.0,25.0,-100.00,South,170,22.0,37.0,44,-99.99,,,0.00,308.000000,,2013-03-14 21:22:00,
2013-03-14 15:32:00,46.0,25.0,-100.00,South,170,22.0,37.0,44,-99.99,,,0.00,308.000000,,2013-03-14 21:32:00,
2013-03-14 15:43:00,46.0,25.0,-100.00,South,170,22.0,37.0,44,-99.99,,,0.00,308.000000,,2013-03-14 21:43:00,
2013-03-14 15:52:00,44.0,23.0,-100.00,South,181,15.0,34.0,44,0.00,,,0.00,224.000000,,2013-03-14 21:52:00,
2013-03-14 16:12:00,44.0,23.0,-100.00,South,181,15.0,34.0,44,0.00,,,0.00,224.000000,,2013-03-14 22:12:00,
2013-03-14 16:23:00,44.0,23.0,-100.00,South,181,15.0,34.0,44,0.00,,,0.00,224.000000,,2013-03-14 22:23:00,
2013-03-14 16:32:00,44.0,23.0,-100.00,South,181,15.0,34.0,44,0.00,,,0.00,224.000000,,2013-03-14 22:32:00,
2013-03-14 16:42:00,44.0,23.0,-100.00,South,181,15.0,34.0,44,0.00,,,0.00,224.000000,,2013-03-14 22:42:00,
2013-03-14 16:52:00,44.0,24.0,-100.00,SE,141,10.0,26.0,45,0.00,,,0.00,178.000000,,2013-03-14 22:52:00,
2013-03-14 17:12:00,44.0,24.0,-100.00,SE,141,10.0,26.0,45,0.00,,,0.00,178.000000,,2013-03-14 23:12:00,
2013-03-14 17:22:00,44.0,24.0,-100.00,SE,141,10.0,26.0,45,0.00,,,0.00,178.000000,,2013-03-14 23:22:00,
2013-03-14 17:33:00,44.0,24.0,-100.00,SE,141,10.0,26.0,45,0.00,,,0.00,178.000000,,2013-03-14 23:33:00,
2013-03-14 17:42:00,44.0,24.0,-100.00,SE,141,10.0,26.0,45,0.00,,,0.00,178.000000,,2013-03-14 23:42:00,
2013-03-14 17:52:00,44.0,22.0,-100.00,SE,132,13.0,18.0,41,0.00,,,0.00,106.000000,,2013-03-14 23:52:00,
2013-03-14 18:22:00,44.0,22.0,-100.00,SE,132,13.0,18.0,41,0.00,,,0.00,106.000000,,2013-03-15 00:22:00,
2013-03-14 18:32:00,44.0,22.0,-100.00,SE,132,13.0,18.0,41,0.00,,,0.00,106.000000,,2013-03-15 00:32:00,
2013-03-14 18:42:00,44.0,22.0,-100.00,SE,132,13.0,18.0,41,0.00,,,0.00,106.000000,,2013-03-15 00:42:00,
2013-03-14 18:52:00,46.0,25.0,-100.00,SSE,152,6.0,28.0,43,0.00,,,0.00,37.000000,,2013-03-15 00:52:00,
2013-03-14 19:22:00,46.0,25.0,-100.00,SSE,152,6.0,28.0,43,0.00,,,0.00,37.000000,,2013-03-15 01:22:00,
2013-03-14 19:32:00,46.0,25.0,-100.00,SSE,152,6.0,28.0,43,0.00,,,0.00,37.000000,,2013-03-15 01:32:00,
2013-03-14 19:42:00,46.0,25.0,-100.00,SSE,152,6.0,28.0,43,0.00,,,0.00,37.000000,,2013-03-15 01:42:00,
2013-03-14 20:12:00,45.0,23.0,-100.00,South,171,15.0,22.0,41,0.00,,,0.00,5.000000,,2013-03-15 02:12:00,
2013-03-14 20:22:00,45.0,23.0,-100.00,South,171,15.0,22.0,41,0.00,,,0.00,5.000000,,2013-03-15 02:22:00,
2013-03-14 21:22:00,44.0,22.0,-100.00,SE,126,15.0,24.0,42,0.00,,,0.00,0.000000,,2013-03-15 03:22:00,
2013-03-14 22:12:00,45.0,22.0,-100.00,ESE,123,17.0,28.0,39,-99.99,,,0.00,0.000000,,2013-03-15 04:12:00,
2013-03-14 22:22:00,45.0,22.0,-100.00,ESE,123,17.0,28.0,39,-99.99,,,0.00,0.000000,,2013-03-15 04:22:00,
2013-03-14 23:22:00,45.0,21.0,-100.00,SE,144,21.0,29.0,38,-99.99,,,0.00,0.000000,,2013-03-15 05:22:00,